Home   Weather   Punta Cana   Past weeks

Flag for Dominican Republic Past Weather in Punta Cana, Dominican Republic — Yesterday and Last 2 Weeks

81 °F

Passing clouds.

Feels Like: 87 °F
Forecast: 76 / 87 °F
Wind: No wind

Location: Punta Cana

Current Time: Oct 22, 2016 at 9:29:43 PM

Latest Report: Oct 22, 2016 at 9:00 PM

Visibility: N/A

Pressure: 29.95 "Hg

Humidity: 89%

Dew Point: 77 °F

Location of Punta CanaLocation

Past Weather in Punta Cana — Graph


Punta Cana Temperature Yesterday

Maximum temperature yesterday: 88 °F (at 12:00 PM)
Minimum temperature yesterday: 77 °F (at 4:00 AM)
Average temperature yesterday: 83 °F

High & Low Weather Summary for the Past Weeks

High88 °F (Oct 9, 1:00 PM)100% (Oct 8, 4:00 AM)30.04 "Hg (Oct 8, 4:00 AM)
Low72 °F (Oct 9, 4:00 AM)66% (Oct 9, 1:00 PM)29.77 "Hg (Oct 17, 5:00 AM)
Average81 °F86%29.87 "Hg
* Reported Oct 7 8:00 PM — Oct 22 8:00 PM, Punta Cana, Weather by CustomWeather, © 2016

Note: Actual official high and low records may vary slightly from our data, if they occured in-between our weather recording intervals... More about our weather records


Punta Cana Weather History for the Previous 24 Hours

Scroll right to see more
Time TempWeatherWind HumidityBarometerVisibility
8:00 PM
Sat, Oct 22
81 °FPassing clouds.No wind89%29.92 "HgN/A
7:00 PM82 °FPassing clouds.5 mph84%29.89 "HgN/A
6:00 PM82 °FPartly sunny.6 mph84%29.89 "HgN/A
5:00 PM84 °FPartly sunny.8 mph74%29.86 "HgN/A
4:00 PM86 °FScattered clouds.9 mph75%29.86 "HgN/A
3:00 PM86 °FPartly sunny.9 mph75%29.89 "HgN/A
2:00 PM86 °FPartly sunny.12 mph75%29.89 "HgN/A
1:00 PM84 °FScattered clouds.9 mph79%29.92 "HgN/A
12:00 PM86 °FScattered clouds.5 mph75%29.92 "HgN/A
11:00 AM86 °FScattered clouds.7 mph75%29.95 "HgN/A
10:00 AM84 °FBroken clouds.9 mph79%29.95 "HgN/A
9:00 AM84 °FPartly sunny.12 mph79%29.92 "HgN/A
8:00 AM82 °FScattered clouds.No wind84%29.92 "HgN/A
7:00 AM81 °FScattered clouds.3 mph89%29.89 "HgN/A
6:00 AM81 °FPassing clouds.8 mph84%29.86 "HgN/A
5:00 AM81 °FPassing clouds.5 mph89%29.86 "HgN/A
4:00 AM81 °FPassing clouds.7 mph89%29.86 "HgN/A
3:11 AM81 °FWarm.N/A89%29.83 "HgN/A
2:00 AM81 °FPassing clouds.5 mph89%29.86 "HgN/A
1:00 AM81 °FPassing clouds.5 mph89%29.89 "HgN/A
12:00 AM82 °FPassing clouds.7 mph84%29.86 "HgN/A
11:00 PM
Fri, Oct 21
82 °FPassing clouds.7 mph84%29.89 "HgN/A
10:00 PM82 °FPassing clouds.7 mph84%29.86 "HgN/A
9:00 PM82 °FPassing clouds.7 mph84%29.86 "HgN/A
Weather by CustomWeather, © 2016

See weather overviewHow to use our weather pages